FW8756 Weather Reports


Display with metric or nautical units.
time (UTC)temp
F
wind
direction
speed
MPH
gust
MPH
rain 1hr
in
rain 24hr
in
rain mn
in
humidity
%
barometer
mb
20260502194835 78 16 1.0 2.0 0.00 0.00 0.00 48 1018.1
20260502194332 77 19 4.0 5.0 0.00 0.00 0.00 47 1018.6
20260502193828 75 149 0.0 1.0 0.00 0.00 0.00 52 1018.2
20260502193325 76 110 3.0 3.0 0.00 0.00 0.00 50 1018.5
20260502192821 76 228 1.0 2.0 0.00 0.00 0.00 48 1018.6
20260502192318 77 204 3.0 3.0 0.00 0.00 0.00 49 1018.7
20260502191815 77 55 2.0 3.0 0.00 0.00 0.00 50 1018.8
20260502191313 76 13 2.0 3.0 0.00 0.00 0.00 50 1018.8
20260502190810 76 108 1.0 2.0 0.00 0.00 0.00 53 1018.7
20260502190307 76 310 1.0 2.0 0.00 0.00 0.00 51 1018.7
20260502185803 76 347 2.0 2.0 0.00 0.00 0.00 49 1018.9
20260502185259 76 143 0.0 0.0 0.00 0.00 0.00 52 1019.0
20260502184756 76 26 0.0 1.0 0.00 0.00 0.00 52 1019.2
20260502184251 75 183 1.0 1.0 0.00 0.00 0.00 53 1019.2
20260502183748 75 295 3.0 3.0 0.00 0.00 0.00 52 1019.1
20260502183245 76 163 2.0 2.0 0.00 0.00 0.00 53 1019.3
20260502182740 75 160 2.0 2.0 0.00 0.00 0.00 52 1019.4
20260502182235 76 204 2.0 3.0 0.00 0.00 0.00 49 1019.3
20260502181732 76 329 5.0 8.0 0.00 0.00 0.00 51 1019.6
20260502181232 76 153 0.0 0.0 0.00 0.00 0.00 52 1019.5
20260502180728 76 51 1.0 1.0 0.00 0.00 0.00 50 1019.4
20260502180226 75 21 2.0 2.0 0.00 0.00 0.00 53 1019.5
20260502170150 73 40 0.0 0.0 0.00 0.00 0.00 57 1020.0
20260502164136 71 52 2.0 3.0 0.00 0.00 0.00 56 1020.1
20260502163632 72 123 3.0 6.0 0.00 0.00 0.00 57 1020.1
20260502163129 72 171 0.0 1.0 0.00 0.00 0.00 58 1020.3
20260502162626 70 66 1.0 2.0 0.00 0.00 0.00 60 1020.1
20260502162123 71 191 1.0 2.0 0.00 0.00 0.00 59 1020.4
20260502161620 71 2 3.0 5.0 0.00 0.00 0.00 58 1020.1
20260502161117 71 180 1.0 1.0 0.00 0.00 0.00 61 1020.4
20260502160615 71 97 1.0 1.0 0.00 0.00 0.00 62 1020.1
20260502160114 70 89 0.0 0.0 0.00 0.00 0.00 64 1020.1
20260502152028 68 130 2.0 2.0 0.00 0.00 0.00 71 1020.0
20260502151525 67 94 1.0 2.0 0.00 0.00 0.00 73 1020.0
20260502151022 67 150 1.0 2.0 0.00 0.00 0.00 73 1019.9
20260502150520 66 2 2.0 3.0 0.00 0.00 0.00 74 1019.9
20260502130404 55 162 0.0 0.0 0.00 0.00 0.00 93 1019.0
20260502123347 52 162 0.0 0.0 0.00 0.00 0.00 94 1018.3
20260502122844 52 149 0.0 0.0 0.00 0.00 0.00 94 1018.2
20260502122340 52 147 0.0 0.0 0.00 0.00 0.00 94 1017.9
20260502121839 52 107 0.0 0.0 0.00 0.00 0.00 94 1018.0
20260502121336 51 157 0.0 0.0 0.00 0.00 0.00 94 1018.0
20260502120833 51 156 0.0 0.0 0.00 0.00 0.00 94 1018.0
20260502120329 51 154 0.0 0.0 0.00 0.00 0.00 94 1018.1
20260502115827 51 159 0.0 0.0 0.00 0.00 0.00 94 1018.2
20260502115324 51 150 0.0 0.0 0.00 0.00 0.00 94 1018.1
20260502114820 51 149 0.0 0.0 0.00 0.00 0.00 94 1018.0
20260502114317 51 150 0.0 0.0 0.00 0.00 0.00 94 1017.9
20260502113814 51 92 0.0 1.0 0.00 0.00 0.00 94 1017.7
20260502113311 51 81 0.0 0.0 0.00 0.00 0.00 94 1017.8
20260502112810 51 151 0.0 0.0 0.00 0.00 0.00 94 1017.8
20260502112306 51 115 1.0 1.0 0.00 0.00 0.00 94 1017.5
20260502111804 51 93 0.0 0.0 0.00 0.00 0.00 94 1017.3
20260502111301 51 157 0.0 0.0 0.00 0.00 0.00 94 1017.3
20260502110759 51 158 0.0 0.0 0.00 0.00 0.00 94 1017.1
20260502110256 51 143 0.0 0.0 0.00 0.00 0.00 94 1017.3
20260502105754 51 164 0.0 0.0 0.00 0.00 0.00 94 1017.0
20260502105250 51 154 0.0 0.0 0.00 0.00 0.00 94 1017.0
20260502104748 51 176 0.0 0.0 0.00 0.00 0.00 94 1017.1
20260502104245 51 147 0.0 0.0 0.00 0.00 0.00 94 1017.0
20260502103743 51 179 0.0 0.0 0.00 0.00 0.00 94 1017.1
20260502103240 51 124 0.0 0.0 0.00 0.00 0.00 94 1017.1
20260502102738 51 188 0.0 0.0 0.00 0.00 0.00 94 1016.8
20260502102233 51 156 0.0 1.0 0.00 0.00 0.00 94 1016.9
20260502101732 51 159 0.0 1.0 0.00 0.00 0.00 94 1016.8
20260502101230 51 169 1.0 1.0 0.00 0.00 0.00 94 1016.8
20260502100727 51 147 1.0 1.0 0.00 0.00 0.00 94 1016.7
20260502100226 51 147 0.0 1.0 0.00 0.00 0.00 94 1016.9
20260502091200 51 147 0.0 0.0 0.00 0.00 0.00 94 1016.2
20260502090657 51 127 0.0 0.0 0.00 0.00 0.00 93 1016.0
20260502090154 51 128 0.0 0.0 0.00 0.00 0.00 93 1016.0
20260502071055 53 150 1.0 1.0 0.00 0.00 0.00 92 1015.4
20260502070553 53 171 0.0 1.0 0.00 0.00 0.00 92 1015.4
20260502070051 53 147 0.0 0.0 0.00 0.00 0.00 92 1015.2
20260502065549 53 170 1.0 1.0 0.00 0.00 0.00 92 1015.5
20260502065047 53 359 0.0 1.0 0.00 0.00 0.00 92 1015.5
20260502064545 53 135 1.0 2.0 0.00 0.00 0.00 92 1015.5
20260502064042 53 151 0.0 0.0 0.00 0.00 0.00 92 1015.7
20260502063539 53 94 0.0 0.0 0.00 0.00 0.00 91 1015.6
20260502063037 53 140 0.0 1.0 0.00 0.00 0.00 91 1015.7
20260502062534 54 146 1.0 1.0 0.00 0.00 0.00 91 1015.6
20260502062032 54 133 0.0 1.0 0.00 0.00 0.00 91 1015.8
20260502061530 54 155 1.0 1.0 0.00 0.00 0.00 91 1015.8
20260502061027 54 198 1.0 1.0 0.00 0.00 0.00 91 1015.7
20260502060522 54 154 1.0 1.0 0.00 0.00 0.00 91 1015.4
20260502060019 54 58 1.0 2.0 0.00 0.00 0.00 91 1015.5
20260502055516 54 345 1.0 2.0 0.00 0.00 0.00 91 1015.5
20260502055015 54 133 0.0 1.0 0.00 0.00 0.00 91 1015.4
20260502054513 54 42 3.0 5.0 0.00 0.00 0.00 91 1015.4
20260502054010 54 169 2.0 2.0 0.00 0.00 0.00 91 1015.5
20260502053507 54 189 2.0 2.0 0.00 0.00 0.00 91 1015.5
20260502053005 54 347 1.0 1.0 0.00 0.00 0.00 92 1015.5
20260502052503 54 9 1.0 2.0 0.00 0.00 0.00 92 1015.7
20260502052001 54 34 1.0 2.0 0.00 0.00 0.00 92 1015.6
20260502051459 54 7 2.0 3.0 0.00 0.00 0.00 92 1015.5
20260502050955 53 19 2.0 2.0 0.00 0.00 0.00 92 1015.6
20260502050452 53 58 2.0 3.0 0.00 0.00 0.00 92 1015.5
20260502045949 53 36 5.0 9.0 0.00 0.00 0.00 93 1015.4
20260502045446 53 187 3.0 3.0 0.00 0.00 0.00 93 1015.4
20260502044943 53 199 2.0 3.0 0.00 0.00 0.00 93 1015.5
20260502044438 54 64 3.0 5.0 0.00 0.00 0.00 93 1015.3
20260502043936 54 341 2.0 3.0 0.00 0.00 0.00 94 1015.7
20260502043433 54 189 3.0 3.0 0.00 0.00 0.00 94 1015.3
20260502042933 54 177 4.0 5.0 0.00 0.00 0.00 94 1015.3
20260502042430 54 123 2.0 3.0 0.00 0.00 0.00 94 1015.5
20260502041927 55 247 1.0 2.0 0.00 0.00 0.00 94 1015.7
20260502041425 55 33 1.0 2.0 0.00 0.00 0.00 94 1015.6
20260502040922 55 233 2.0 2.0 0.00 0.00 0.00 94 1015.6
20260502040418 55 26 4.0 8.0 0.00 0.00 0.00 94 1015.5
20260502035914 55 51 2.0 2.0 0.00 0.00 0.00 95 1015.3
20260502035411 55 13 2.0 5.0 0.00 0.00 0.00 95 1015.2
20260502034909 55 167 1.0 2.0 0.00 0.00 0.00 95 1015.3
20260502034408 55 200 1.0 2.0 0.00 0.00 0.00 95 1015.5
20260502033905 55 7 1.0 2.0 0.00 0.00 0.00 95 1015.4
20260502033403 54 141 1.0 1.0 0.00 0.00 0.00 95 1015.0
20260502032859 55 139 1.0 1.0 0.00 0.00 0.00 95 1015.3
20260502032355 54 358 3.0 3.0 0.00 0.00 0.00 95 1015.2
20260502031853 55 230 1.0 2.0 0.00 0.00 0.00 95 1015.3
20260502031351 55 180 1.0 1.0 0.00 0.00 0.00 95 1015.0
20260502030849 55 182 1.0 2.0 0.00 0.00 0.00 95 1014.9
20260502030347 55 197 1.0 1.0 0.00 0.00 0.00 95 1014.9
20260502025844 55 160 3.0 5.0 0.00 0.00 0.00 95 1014.6
20260502025341 55 65 1.0 3.0 0.00 0.00 0.00 95 1014.2
20260502024839 55 199 1.0 2.0 0.00 0.00 0.00 95 1014.2
20260502024337 55 26 2.0 2.0 0.00 0.00 0.00 95 1014.1
20260502023835 55 174 3.0 3.0 0.00 0.00 0.00 95 1014.0
20260502023332 55 193 1.0 2.0 0.00 0.00 0.00 95 1013.7
20260502022830 55 285 0.0 1.0 0.00 0.00 0.00 95 1013.6
20260502022326 55 138 2.0 2.0 0.00 0.00 0.00 95 1013.7
20260502021823 55 46 0.0 0.0 0.00 0.00 0.00 95 1013.8
20260502021320 55 20 0.0 3.0 0.00 0.00 0.00 95 1013.5
20260502020817 55 111 0.0 0.0 0.00 0.00 0.00 95 1013.8
20260502020315 55 182 1.0 2.0 0.00 0.00 0.00 95 1014.0
20260502015812 55 50 0.0 1.0 0.00 0.00 0.00 95 1014.0
20260502015308 55 33 3.0 5.0 0.00 0.00 0.00 95 1013.9
20260502014806 55 212 2.0 2.0 0.00 0.00 0.00 95 1013.6
20260502014303 55 286 2.0 2.0 0.00 0.00 0.00 95 1013.5
20260502013759 55 180 3.0 3.0 0.00 0.00 0.00 95 1013.2
20260502013255 55 93 0.0 0.0 0.00 0.00 0.00 95 1013.4
20260502012751 55 165 0.0 1.0 0.00 0.00 0.00 95 1013.4
20260502012249 55 146 1.0 1.0 0.00 0.00 0.00 95 1013.4
20260502011746 55 67 0.0 0.0 0.00 0.00 0.00 95 1013.3
20260502011242 55 0 4.0 6.0 0.00 0.00 0.00 95 1013.1
20260502010740 55 261 2.0 3.0 0.00 0.00 0.00 95 1013.0
20260502010236 55 124 0.0 1.0 0.00 0.00 0.00 95 1012.8
20260502005733 55 28 1.0 3.0 0.00 0.00 0.00 95 1012.7
20260502005231 55 356 1.0 3.0 0.00 0.00 0.00 95 1012.6
20260502004727 56 220 3.0 3.0 0.00 0.00 0.00 95 1012.8
20260502004224 56 45 0.0 0.0 0.00 0.00 0.00 95 1013.2
20260502003722 56 111 0.0 1.0 0.00 0.00 0.00 95 1013.3
20260502003219 56 24 2.0 3.0 0.00 0.00 0.00 95 1013.4
20260502002714 56 97 2.0 3.0 0.00 0.00 0.00 95 1013.2
20260502002213 56 155 0.0 0.0 0.00 0.00 0.00 95 1013.0
20260502001709 56 219 1.0 2.0 0.00 0.00 0.00 95 1012.6
20260502001208 56 2 3.0 6.0 0.00 0.00 0.00 95 1012.6
20260502000704 56 27 1.0 1.0 0.00 0.00 0.00 95 1012.6
20260502000203 57 151 3.0 8.0 0.00 0.00 0.00 95 1012.6
20260501235658 57 179 1.0 2.0 0.00 0.00 0.00 95 1012.1
20260501235154 57 25 3.0 3.0 0.00 0.00 0.00 95 1012.0
20260501234650 57 123 1.0 1.0 0.00 0.00 0.00 95 1011.9
20260501234147 57 155 0.0 1.0 0.00 0.00 0.00 95 1012.3
20260501233645 57 329 2.0 3.0 0.00 0.00 0.00 94 1012.1
20260501233142 57 347 2.0 3.0 0.00 0.00 0.00 94 1012.0
20260501232638 57 15 2.0 6.0 0.00 0.00 0.00 94 1011.3
20260501232136 57 163 0.0 0.0 0.00 0.00 0.00 94 1010.7
20260501231633 57 317 2.0 3.0 0.00 0.00 0.00 94 1010.0
20260501231131 58 246 3.0 3.0 0.00 0.00 0.00 95 1010.5
20260501230630 58 11 3.0 3.0 0.00 0.00 0.00 95 1010.9
20260501230127 58 22 2.0 2.0 0.00 0.00 0.00 95 1010.8
20260501225625 58 183 2.0 2.0 0.00 0.00 0.00 95 1011.1
20260501225121 58 233 1.0 1.0 0.00 0.00 0.00 95 1010.8
20260501224618 58 124 1.0 2.0 0.00 0.00 0.00 95 1010.0
20260501224115 58 71 2.0 3.0 0.00 0.00 0.00 95 1009.7
20260501223611 58 101 3.0 5.0 0.00 0.00 0.00 95 1009.1
20260501223108 59 302 3.0 5.0 0.00 0.00 0.00 95 1008.9
20260501222604 59 40 2.0 3.0 0.00 0.00 0.00 95 1009.5
20260501222101 59 307 1.0 3.0 0.00 0.00 0.00 95 1009.7
20260501221558 59 21 2.0 3.0 0.00 0.00 0.00 95 1010.2
20260501221055 59 255 2.0 3.0 0.00 0.00 0.00 94 1009.8
20260501220553 58 21 3.0 3.0 0.00 0.00 0.00 94 1009.9
20260501220050 59 69 2.0 6.0 0.00 0.00 0.00 94 1010.6
20260501215546 59 16 2.0 2.0 0.00 0.00 0.00 94 1011.3
20260501215041 59 149 2.0 3.0 0.00 0.00 0.00 94 1011.4
20260501214537 59 45 0.0 1.0 0.00 0.00 0.00 95 1011.2
20260501214033 59 229 2.0 5.0 0.00 0.00 0.00 94 1011.1
20260501213530 59 80 2.0 3.0 0.00 0.00 0.00 94 1010.6
20260501213026 59 49 1.0 2.0 0.00 0.00 0.00 95 1010.7
20260501212522 59 158 1.0 2.0 0.00 0.00 0.00 95 1011.5
20260501212020 59 179 2.0 3.0 0.00 0.00 0.00 94 1011.0
20260501211516 59 192 2.0 3.0 0.00 0.00 0.00 95 1010.7
20260501211015 59 197 3.0 3.0 0.00 0.00 0.00 94 1010.2
20260501210510 59 352 2.0 3.0 0.00 0.00 0.00 95 1009.6
20260501210007 60 146 3.0 5.0 0.00 0.00 0.00 95 1009.3
20260501205504 60 335 2.0 3.0 0.00 0.00 0.00 94 1009.4
20260501205001 60 207 1.0 3.0 0.00 0.00 0.00 94 1010.5
20260501204457 60 182 1.0 1.0 0.00 0.00 0.00 95 1010.1
20260501203954 60 338 2.0 3.0 0.00 0.00 0.00 94 1009.5
20260501203450 60 54 2.0 2.0 0.00 0.00 0.00 94 1009.4
20260501202948 60 54 2.0 3.0 0.00 0.00 0.00 94 1009.7
20260501202444 60 147 0.0 1.0 0.00 0.00 0.00 94 1010.1
20260501201940 60 122 1.0 1.0 0.00 0.00 0.00 94 1010.2
20260501201438 60 133 2.0 2.0 0.00 0.00 0.00 94 1010.1
20260501200935 60 101 2.0 3.0 0.00 0.00 0.00 94 1010.3
20260501200432 60 143 1.0 2.0 0.00 0.00 0.00 94 1010.3
20260501195929 60 129 0.0 1.0 0.00 0.00 0.00 94 1010.7
20260501195426 60 148 1.0 1.0 0.00 0.00 0.00 94 1010.4